This demonstration page uses our WeatherBlox Daily Observations layout. Learn more.

Left ArrowRight Arrow

39.92423, -83.80882

Hourly Observations for February 1, 2015

Temp ( °F °C ) Dew Point ( °F °C ) Humidity (%) Winds ( mph kmh ) Pressure ( in mb ) Visibility ( mi km ) Precip ( " mm )
12:20 am 00:20 Cloudy with Light Wintry Mix 32 0 30 -1 93 93 SW 9 15 30.27 1025 3 4 0.00 0.03
12:27 am 00:27 Cloudy with Light Wintry Mix 32 0 30 -1 93 93 SSW 8 13 30.27 1025 3 4 0.00 0.03
12:36 am 00:36 Cloudy with Light Wintry Mix 32 0 30 -1 93 93 SW 9 15 30.27 1025 3 5 0.00 0.03
12:56 am 00:56 Cloudy with Mist and Fog 32 0 30 -1.1 92 92 SSW 8 13 30.24 1024 4 6 0.00 0.03
1:26 am 01:26 Cloudy with Light Wintry Mix 32 0 30 -1 93 93 SSW 7 11 30.27 1025 3 4 0.00 0.03
1:33 am 01:33 Cloudy with Light Snow 32 0 30 -1 93 93 SSW 7 11 30.27 1025 3 4 0.00 0.03
1:44 am 01:44 Cloudy with Light Snow 32 0 30 -1 93 93 S 6 9 30.24 1024 3 5 0.01 0.25
1:56 am 01:56 Mostly Cloudy with Mist and Fog 32 0 31 -0.5 96 96 Calm 30.21 1023 3 5 0.01 0.25
2:56 am 02:56 Mostly Cloudy with Mist and Fog 32 0 31 -0.5 96 96 Calm 30.20 1023 4 6 0.00 0.03
3:56 am 03:56 Mostly Cloudy with Mist and Fog 32 0 32 0 100 100 SSE 3 6 30.18 1022 4 6 0.00 0.00
4:05 am 04:05 Partly Cloudy with Mist and Fog 32 0 32 0 100 100 SSE 3 6 30.21 1023 3 5 0.00 0.00
4:43 am 04:43 Partly Cloudy with Mist and Fog 32 0 32 0 100 100 S 7 11 30.21 1023 4 6 0.00 0.00
4:45 am 04:45 Mostly Cloudy with Mist and Fog 32 0 32 0 100 100 S 7 11 30.21 1023 4 6 0.00 0.00
4:56 am 04:56 Mostly Cloudy with Mist and Fog 32 0 32 0 100 100 S 7 11 30.17 1022 4 6 0.00 0.00
5:49 am 05:49 Cloudy with Mist and Fog 32 0 30 -1 93 93 SSE 3 6 30.21 1023 5 8 0.00 0.00
5:56 am 05:56 Cloudy with Mist and Fog 32 0 31 -0.5 96 96 SSE 3 6 30.17 1022 5 8 0.00 0.00
6:33 am 06:33 Mostly Cloudy with Mist and Fog 32 0 30 -1 93 93 SE 7 11 30.18 1022 4 6 0.00 0.03
6:56 am 06:56 Mostly Cloudy with Mist and Fog 32 0 32 0 100 100 SE 6 9 30.14 1021 5 8 0.00 0.03
7:45 am 07:45 Cloudy with Light Wintry Mix 32 0 30 -1 93 93 SE 9 15 30.15 1021 3 4 0.00 0.03
7:56 am 07:56 Cloudy with Light Snow 32 0 31 -0.5 96 96 SE 9 15 30.12 1020 1 2 0.00 0.03
8:02 am 08:02 Cloudy with Light Snow 32 0 30 -1 93 93 SE 9 15 30.15 1021 1 2 0.00 0.03
8:07 am 08:07 Cloudy with Light Snow 32 0 30 -1 93 93 SE 9 15 30.15 1021 1 2 0.00 0.03
8:17 am 08:17 Mostly Cloudy with Light Snow 32 0 32 0 100 100 SE 9 15 30.12 1020 2 2 0.00 0.03
8:29 am 08:29 Mostly Cloudy with Light Snow 32 0 32 0 100 100 SE 12 19 30.12 1020 3 4 0.00 0.03
8:36 am 08:36 Mostly Cloudy with Mist and Fog 34 1 32 0 93 93 SE 12 19 30.12 1020 4 6 0.00 0.03
8:46 am 08:46 Mostly Cloudy with Mist and Fog 34 1 32 0 93 93 ESE 15 24 30.09 1019 5 8 0.00 0.03
8:56 am 08:56 Cloudy with Mist and Fog 33 0.5 32 0 96 96 ESE 13 20 30.06 1018 5 8 0.00 0.03
9:04 am 09:04 Cloudy with Mist and Fog 34 1 32 0 93 93 ESE 14 22 30.09 1019 5 8 0.00 0.00
9:56 am 09:56 Mostly Cloudy with Mist and Fog 33 0.5 32 0 96 96 ESE 14 22 30.01 1016 6 10 0.00 0.00
10:56 am 10:56 Mostly Cloudy 34 1.1 32 0 92 92 SE 13 20 29.98 1015 7 11 0.00 0.00
11:56 am 11:56 Cloudy 35 1.6 32 0 89 89 SE 13 20 29.93 1014 8 13 0.00 0.00
12:56 pm 12:56 Mostly Cloudy with Haze 36 2.2 30 -1.1 79 79 SE 14 22 29.87 1012 6 10 0.00 0.00
1:56 pm 13:56 Cloudy with Light Rain 36 2.2 30 -1.1 79 79 SE 14 22 29.80 1009 3 5 0.00 0.03
2:10 pm 14:10 Cloudy with Light Rain 36 2 30 -1 81 81 SE 13 20 29.80 1009 3 4 0.01 0.25
2:18 pm 14:18 Cloudy with Light Rain 36 2 30 -1 81 81 SE 13 20 29.77 1008 3 5 0.02 0.51
2:28 pm 14:28 Cloudy with Light Rain 36 2 30 -1 81 81 SE 10 17 29.77 1008 3 5 0.02 0.51
2:56 pm 14:56 Cloudy with Light Rain 35 1.6 32 0 89 89 SE 13 20 29.74 1007 4 6 0.04 1.02
3:10 pm 15:10 Cloudy with Mist and Fog 36 2 34 1 93 93 SE 10 17 29.74 1007 4 6 0.00 0.03
3:22 pm 15:22 Cloudy with Mist and Fog 36 2 34 1 93 93 SE 13 20 29.74 1007 2 3 0.00 0.03
3:36 pm 15:36 Cloudy with Mist and Fog 37 3 36 2 93 93 SSE 9 15 29.71 1006 3 5 0.00 0.03
3:56 pm 15:56 Cloudy with Mist and Fog 38 3.3 37 2.7 96 96 SSE 15 24 29.70 1006 3 5 0.00 0.03
4:02 pm 16:02 Cloudy with Mist and Fog 37 3 37 3 100 100 S 13 20 29.71 1006 3 4 0.00 0.00
4:10 pm 16:10 Cloudy with Mist and Fog 37 3 37 3 100 100 S 12 19 29.71 1006 2 3 0.00 0.00
4:18 pm 16:18 Cloudy with Mist and Fog 39 4 37 3 93 93 S 14 22 29.71 1006 2 3 0.00 0.00
4:21 pm 16:21 Cloudy with Mist and Fog 39 4 37 3 93 93 SSE 14 22 29.68 1005 2 3 0.00 0.00
4:40 pm 16:40 Cloudy with Mist and Fog 37 3 37 3 100 100 S 15 24 29.68 1005 3 4 0.00 0.00
4:56 pm 16:56 Cloudy with Mist and Fog 38 3.3 37 2.7 96 96 SSE 15 24 29.67 1005 1 2 0.00 0.00
5:12 pm 17:12 Cloudy with Mist and Fog 37 3 37 3 100 100 SSE 13 20 29.65 1004 2 2 0.00 0.00
5:20 pm 17:20 Cloudy with Mist and Fog 37 3 37 3 100 100 SSE 14 22 29.65 1004 1 2 0.00 0.00
5:34 pm 17:34 Cloudy with Light Rain 37 3 37 3 100 100 SSE 13 20 29.65 1004 1 2 0.00 0.03
5:56 pm 17:56 Cloudy with Light Rain 38 3.3 38 3.3 100 100 S 13 20 29.63 1004 2 2 0.02 0.51
6:07 pm 18:07 Cloudy with Light Rain 37 3 37 3 100 100 SSE 14 22 29.62 1003 3 5 0.01 0.25
6:56 pm 18:56 Cloudy with Light Rain 38 3.3 38 3.3 100 100 S 9 15 29.60 1002 3 5 0.02 0.51
7:56 pm 19:56 Cloudy with Light Rain 39 3.8 39 3.8 100 100 S 7 11 29.57 1001 4 6 0.04 1.02
8:40 pm 20:40 Cloudy with Mist and Fog 39 4 39 4 100 100 S 7 11 29.59 1002 4 6 0.02 0.51
8:56 pm 20:56 Cloudy with Mist and Fog 40 4.4 40 4.4 100 100 S 7 11 29.55 1001 5 8 0.02 0.51
9:19 pm 21:19 Cloudy with Mist and Fog 39 4 39 4 100 100 SSW 8 13 29.56 1001 2 3 0.00 0.00
9:38 pm 21:38 Cloudy with Light Rain 39 4 39 4 100 100 SSW 7 11 29.56 1001 2 2 0.00 0.03
9:40 pm 21:40 Cloudy with Light Rain 39 4 39 4 100 100 S 7 11 29.56 1001 1 2 0.00 0.03
9:49 pm 21:49 Cloudy with Light Rain 39 4 39 4 100 100 SSW 7 11 29.56 1001 1 1 0.01 0.25
9:56 pm 21:56 Cloudy with Light Rain 40 4.4 40 4.4 100 100 SSW 7 11 29.52 1000 1 1 0.01 0.25
10:22 pm 22:22 Cloudy with Mist and Fog 39 4 39 4 100 100 SW 9 15 29.56 1001 1 2 0.00 0.03
10:28 pm 22:28 Cloudy with Mist and Fog 39 4 39 4 100 100 SW 10 17 29.56 1001 2 3 0.00 0.03
10:49 pm 22:49 Cloudy with Mist and Fog 41 5 41 5 100 100 WSW 10 17 29.56 1001 3 5 0.00 0.03
10:56 pm 22:56 Cloudy with Mist and Fog 41 5 41 5 100 100 WSW 13 20 29.52 1000 4 6 0.00 0.03
11:16 pm 23:16 Cloudy with Light Rain 41 5 41 5 100 100 W 15 24 29.56 1001 2 3 0.00 0.03
11:27 pm 23:27 Cloudy with Mist and Fog 39 4 39 4 100 100 W 14 22 29.56 1001 3 5 0.00 0.03
11:34 pm 23:34 Cloudy with Mist and Fog 39 4 39 4 100 100 W 14 22 29.56 1001 2 3 0.00 0.03
11:49 pm 23:49 Cloudy with Mist and Fog 39 4 39 4 100 100 W 13 20 29.56 1001 3 5 0.00 0.03
11:56 pm 23:56 Cloudy with Mist and Fog 38 3.3 38 3.3 100 100 W 13 20 29.53 1000 3 5 0.00 0.03

Powered by AerisWeather